This demonstration page uses our WeatherBlox Daily Observations layout. Learn more.

Left ArrowRight Arrow

39.51506, -84.39828

Hourly Observations for September 20, 2016

Temp ( °F °C ) Dew Point ( °F °C ) Humidity (%) Winds ( mph kmh ) Pressure ( in mb ) Visibility ( mi km ) Precip ( " mm )
12:15 am 00:15 Clear 63 17.1 57 13.9 82 82 N 3 6 30.09 1019 10 16 N/A
12:35 am 00:35 Clear 63 17.2 56 13.5 79 79 N N/A 30.09 1019 10 16 N/A
12:55 am 00:55 Clear 62 16.8 56 13.5 81 81 N N/A 30.09 1019 10 16 N/A
1:15 am 01:15 Clear 62 16.6 56 13.6 83 83 N N/A 30.09 1019 10 16 N/A
1:35 am 01:35 Clear 62 16.6 57 13.7 83 83 N N/A 30.09 1019 7 11 N/A
1:55 am 01:55 Clear 61 16 55 13 83 83 N N/A 30.12 1020 10 16 N/A
2:15 am 02:15 Clear 61 15.9 55 13 83 83 NNW 3 6 30.12 1020 10 16 N/A
2:35 am 02:35 Clear 61 16 55 13 83 83 N N/A 30.12 1020 10 16 N/A
2:55 am 02:55 Clear 61 15.9 55 12.9 83 83 N N/A 30.12 1020 10 16 N/A
3:15 am 03:15 Clear 61 16 55 13 83 83 N N/A 30.12 1020 10 16 N/A
3:35 am 03:35 Clear 60 15.7 55 12.8 83 83 N N/A 30.15 1021 10 16 N/A
3:55 am 03:55 Clear 60 15.4 55 12.5 83 83 N N/A 30.15 1021 10 16 N/A
4:15 am 04:15 Clear 60 15.3 55 12.5 84 84 N N/A 30.15 1021 10 16 N/A
4:35 am 04:35 Clear 60 15.3 55 12.5 84 84 N N/A 30.15 1021 10 16 N/A
4:55 am 04:55 Clear 60 15.3 55 12.5 84 84 N N/A 30.15 1021 10 16 N/A
5:15 am 05:15 Clear 60 15.3 55 12.7 85 85 NNW 3 6 30.15 1021 10 16 N/A
5:35 am 05:35 Clear 60 15.3 55 12.5 84 84 N N/A 30.15 1021 10 16 N/A
5:55 am 05:55 Clear 60 15.3 55 12.7 85 85 N N/A 30.15 1021 10 16 N/A
6:15 am 06:15 Clear 60 15.3 55 12.5 84 84 N N/A 30.15 1021 10 16 N/A
6:35 am 06:35 Clear 59 14.9 54 12.3 85 85 N N/A 30.15 1021 10 16 N/A
6:55 am 06:55 Clear 60 15.3 55 12.7 85 85 N N/A 30.15 1021 7 11 N/A
7:15 am 07:15 Clear 57 13.8 52 11.2 84 84 N N/A 30.18 1022 7 11 N/A
7:35 am 07:35 Hazy 57 13.8 52 11.3 85 85 N N/A 30.18 1022 4 6 N/A
7:55 am 07:55 Sunny 58 14.3 53 11.8 85 85 N N/A 30.18 1022 10 16 N/A
8:15 am 08:15 Sunny 60 15.3 55 12.7 85 85 N N/A 30.18 1022 10 16 N/A
8:35 am 08:35 Sunny 61 16.3 56 13.3 83 83 N N/A 30.18 1022 10 16 N/A
8:55 am 08:55 Sunny 63 17.1 57 14 82 82 N N/A 30.21 1023 10 16 N/A
9:15 am 09:15 Sunny 65 18.3 58 14.6 79 79 N N/A 30.18 1022 10 16 N/A
9:35 am 09:35 Sunny 69 20.8 61 16.3 76 76 N N/A 30.15 1021 10 16 N/A
9:55 am 09:55 Sunny 69 20.8 61 15.9 74 74 N N/A 30.18 1022 10 16 N/A
10:15 am 10:15 Sunny 73 22.8 61 16.3 67 67 N N/A 30.18 1022 10 16 N/A
10:35 am 10:35 Sunny 74 23.6 62 16.6 65 65 N N/A 30.18 1022 10 16 N/A
10:55 am 10:55 Sunny 74 23.6 59 14.9 58 58 N N/A 30.18 1022 10 16 N/A
11:15 am 11:15 Sunny 77 25 59 14.9 54 54 N N/A 30.18 1022 10 16 N/A
11:35 am 11:35 Sunny 77 25.1 56 13.4 48 48 N N/A 30.18 1022 10 16 N/A
11:55 am 11:55 Sunny 80 26.5 58 14.7 48 48 N N/A 30.18 1022 10 16 N/A
12:15 pm 12:15 Sunny 80 26.5 55 13 43 43 N N/A 30.15 1021 10 16 N/A
12:35 pm 12:35 Sunny 81 27.2 51 10.8 36 36 NE 3 6 30.15 1021 10 16 N/A
12:55 pm 12:55 Sunny 82 28 54 12.1 37 37 N N/A 30.15 1021 10 16 N/A
1:15 pm 13:15 Sunny 83 28.1 50 10.1 32 32 N N/A 30.15 1021 10 16 N/A
1:35 pm 13:35 Sunny 83 28.6 50 9.9 31 31 N N/A 30.15 1021 10 16 N/A
1:55 pm 13:55 Sunny 85 29.3 49 9.7 29 29 N N/A 30.15 1021 10 16 N/A
2:15 pm 14:15 Sunny 88 30.9 51 10.5 28 28 E 5 7 30.12 1020 10 16 N/A
2:35 pm 14:35 Sunny 88 30.9 53 11.6 30 30 E 5 7 30.09 1019 10 16 N/A
2:55 pm 14:55 Sunny 90 32 51 10.8 27 27 ESE 7 11 30.09 1019 10 16 N/A
3:15 pm 15:15 Sunny 88 31 47 8.6 25 25 N N/A 30.09 1019 10 16 N/A
3:35 pm 15:35 Sunny 90 32.1 47 8.1 22 22 ENE 7 11 30.09 1019 10 16 N/A
3:55 pm 15:55 Sunny 90 32.1 43 6.1 20 20 N 3 6 30.09 1019 10 16 N/A
4:15 pm 16:15 Sunny 90 32.1 45 7 21 21 N N/A 30.09 1019 10 16 N/A
4:35 pm 16:35 Sunny 90 32.1 45 7.2 21 21 N N/A 30.09 1019 10 16 N/A
4:55 pm 16:55 Sunny 90 32.1 46 8 22 22 N N/A 30.09 1019 10 16 N/A
5:15 pm 17:15 Sunny 89 31.6 49 9.5 25 25 N N/A 30.09 1019 10 16 N/A
5:35 pm 17:35 Sunny 89 31.6 51 10.5 27 27 NNE 3 6 30.09 1019 10 16 N/A
5:55 pm 17:55 Sunny 88 31.1 49 9.3 26 26 N N/A 30.09 1019 10 16 N/A
6:15 pm 18:15 Sunny 87 30.7 49 9.7 27 27 NW 3 6 30.09 1019 10 16 N/A
6:35 pm 18:35 Sunny 84 29 49 9.7 30 30 N N/A 30.12 1020 10 16 N/A
6:55 pm 18:55 Sunny 80 26.5 62 16.9 56 56 N N/A 30.12 1020 10 16 N/A
7:15 pm 19:15 Sunny 77 25.1 65 18.4 66 66 N N/A 30.12 1020 10 16 N/A
7:35 pm 19:35 Sunny 74 23.6 65 18.2 72 72 N N/A 30.12 1020 10 16 N/A
7:55 pm 19:55 Clear 71 21.8 64 17.5 77 77 N N/A 30.12 1020 10 16 N/A
8:15 pm 20:15 Clear 70 21.1 62 16.4 75 75 N N/A 30.12 1020 10 16 N/A
8:35 pm 20:35 Clear 69 20.8 61 16 74 74 N N/A 30.12 1020 10 16 N/A
8:55 pm 20:55 Clear 69 20.8 61 16.3 76 76 N N/A 30.15 1021 10 16 N/A
9:15 pm 21:15 Clear 69 20.3 61 16.2 77 77 N N/A 30.15 1021 10 16 N/A
9:35 pm 21:35 Clear 67 19.4 60 15.8 80 80 N N/A 30.15 1021 10 16 N/A
9:55 pm 21:55 Clear 65 18.1 58 14.5 80 80 NNW 3 6 30.15 1021 10 16 N/A
10:15 pm 22:15 Clear 67 19.3 59 15.2 77 77 N N/A 30.15 1021 10 16 N/A
10:35 pm 22:35 Clear 64 18 58 14.3 79 79 N N/A 30.15 1021 10 16 N/A
10:55 pm 22:55 Clear 64 17.5 57 13.8 79 79 N N/A 30.15 1021 10 16 N/A
11:15 pm 23:15 Clear 63 17 56 13.6 81 81 N N/A 30.15 1021 10 16 N/A
11:35 pm 23:35 Clear 63 17 56 13.5 80 80 N N/A 30.15 1021 10 16 N/A
11:55 pm 23:55 Clear 63 17 57 13.8 82 82 NNE 3 6 30.15 1021 10 16 N/A

Powered by AerisWeather